DW5242 Weather Reports


Display with metric or nautical units.
time (UTC)temp
F
wind
direction
speed
MPH
gust
MPH
rain 1hr
in
rain 24hr
in
rain mn
in
humidity
%
barometer
mb
20190418101534 55 68 0.0 0.0 0.00 0.00 0.00 61 1019.1
20190418101042 55 82 0.0 0.0 0.00 0.00 0.00 61 1019.1
20190418100534 55 76 0.0 0.0 0.00 0.00 0.00 61 1018.9
20190418100026 55 74 0.0 0.0 0.00 0.00 0.00 62 1019.0
20190418095533 55 68 0.0 0.0 0.00 0.00 0.00 62 1019.0
20190418095034 55 86 0.0 0.0 0.00 0.00 0.00 62 1019.0
20190418094538 55 84 0.0 0.0 0.00 0.00 0.00 62 1019.1
20190418094042 55 71 0.0 0.0 0.00 0.00 0.00 62 1019.2
20190418093529 55 92 0.0 0.0 0.00 0.00 0.00 62 1019.2
20190418093029 56 89 0.0 0.0 0.00 0.00 0.00 61 1019.2
20190418092530 56 86 0.0 0.0 0.00 0.00 0.00 61 1019.3
20190418092035 56 92 0.0 0.0 0.00 0.00 0.00 60 1019.4
20190418091548 56 87 0.0 0.0 0.00 0.00 0.00 60 1019.4
20190418091045 56 80 0.0 0.0 0.00 0.00 0.00 60 1019.3
20190418090558 56 72 0.0 0.0 0.00 0.00 0.00 60 1019.2
20190418090026 56 71 0.0 0.0 0.00 0.00 0.00 60 1019.4
20190418085533 56 86 0.0 0.0 0.00 0.00 0.00 60 1019.4
20190418085034 56 90 0.0 0.0 0.00 0.00 0.00 60 1019.4
20190418084538 56 90 0.0 0.0 0.00 0.00 0.00 59 1019.5
20190418084039 56 90 0.0 0.0 0.00 0.00 0.00 59 1019.5
20190418083543 56 90 0.0 0.0 0.00 0.00 0.00 59 1019.5
20190418083044 56 81 0.0 0.0 0.00 0.00 0.00 59 1019.6
20190418082526 56 69 0.0 0.0 0.00 0.00 0.00 58 1019.6
20190418082030 57 68 0.0 0.0 0.00 0.00 0.00 57 1019.7
20190418081534 57 68 0.0 0.0 0.00 0.00 0.00 57 1019.8
20190418081038 57 68 0.0 0.0 0.00 0.00 0.00 57 1019.8
20190418080553 57 68 0.0 0.0 0.00 0.00 0.00 58 1019.8
20190418080041 57 68 0.0 0.0 0.00 0.00 0.00 58 1019.8
20190418075525 57 161 0.0 0.0 0.00 0.00 0.00 58 1019.9
20190418075026 57 161 0.0 0.0 0.00 0.00 0.00 58 1019.9
20190418074533 57 161 0.0 0.0 0.00 0.00 0.00 57 1019.9
20190418074034 57 161 0.0 0.0 0.00 0.00 0.00 57 1019.9
20190418073541 57 161 0.0 0.0 0.00 0.00 0.00 56 1019.9
20190418073042 58 157 0.0 0.0 0.00 0.00 0.00 56 1019.8
20190418072534 58 93 0.0 0.0 0.00 0.00 0.00 55 1019.8
20190418072034 58 93 0.0 0.0 0.00 0.00 0.00 54 1019.8
20190418071535 58 93 0.0 0.0 0.00 0.00 0.00 53 1019.7
20190418071039 59 9 0.0 0.0 0.00 0.00 0.00 53 1019.8
20190418070550 59 9 0.0 0.0 0.00 0.00 0.00 52 1019.8
20190418070042 59 9 0.0 0.0 0.00 0.00 0.00 51 1019.8
20190418065543 60 9 0.0 0.0 0.00 0.00 0.00 51 1019.6
20190418065044 60 9 0.0 0.0 0.00 0.00 0.00 51 1019.6
20190418064525 60 9 0.0 0.0 0.00 0.00 0.00 51 1019.6
20190418064029 60 9 0.0 0.0 0.00 0.00 0.00 50 1019.6
20190418063530 60 9 0.0 0.0 0.00 0.00 0.00 50 1019.5
20190418063030 60 9 0.0 0.0 0.00 0.00 0.00 50 1019.5
20190418062538 60 9 0.0 0.0 0.00 0.00 0.00 50 1019.4
20190418062039 60 9 0.0 0.0 0.00 0.00 0.00 49 1019.4
20190418061540 60 9 0.0 0.0 0.00 0.00 0.00 49 1019.3
20190418061044 60 9 0.0 0.0 0.00 0.00 0.00 49 1019.2
20190418060555 60 9 0.0 0.0 0.00 0.00 0.00 49 1019.2
20190418060029 60 9 0.0 0.0 0.00 0.00 0.00 49 1019.1
20190418055533 60 9 0.0 0.0 0.00 0.00 0.00 49 1019.0
20190418055040 61 9 0.0 0.0 0.00 0.00 0.00 48 1018.9
20190418054544 61 9 0.0 0.0 0.00 0.00 0.00 48 1018.8
20190418054025 61 9 0.0 0.0 0.00 0.00 0.00 48 1018.8
20190418053529 61 9 0.0 0.0 0.00 0.00 0.00 48 1018.7
20190418053033 61 9 0.0 0.0 0.00 0.00 0.00 48 1018.7
20190418052538 61 5 0.0 0.0 0.00 0.00 0.00 47 1018.6
20190418052025 61 5 0.0 0.0 0.00 0.00 0.00 47 1018.6
20190418051526 61 5 0.0 0.0 0.00 0.00 0.00 47 1018.6
20190418051033 62 9 0.0 0.0 0.00 0.00 0.00 47 1018.7
20190418050544 62 9 0.0 0.0 0.00 0.00 0.00 46 1018.6
20190418050033 62 9 0.0 0.0 0.00 0.00 0.00 46 1018.6
20190418045538 62 9 0.0 0.0 0.00 0.00 0.00 46 1018.6
20190418045025 62 9 0.0 0.0 0.00 0.00 0.00 46 1018.6
20190418044529 62 9 0.0 0.0 0.00 0.00 0.00 46 1018.6
20190418044033 62 9 0.0 0.0 0.00 0.00 0.00 46 1018.5
20190418043538 62 9 0.0 0.0 0.00 0.00 0.00 45 1018.4
20190418043039 63 9 0.0 0.0 0.00 0.00 0.00 44 1018.4
20190418042543 63 9 0.0 0.0 0.00 0.00 0.00 44 1018.4
20190418042029 63 9 0.0 0.0 0.00 0.00 0.00 44 1018.3
20190418041533 63 9 0.0 0.0 0.00 0.00 0.00 44 1018.3
20190418041038 63 9 0.0 0.0 0.00 0.00 0.00 44 1018.3
20190418040552 64 5 0.0 0.0 0.00 0.00 0.00 43 1018.2
20190418040038 64 9 0.0 0.0 0.00 0.00 0.00 43 1018.2
20190418035538 64 9 0.0 0.0 0.00 0.00 0.00 43 1018.1
20190418035039 64 11 0.0 0.0 0.00 0.00 0.00 42 1018.1
20190418034541 64 5 0.0 0.0 0.00 0.00 0.00 42 1018.1
20190418034029 64 350 0.0 0.0 0.00 0.00 0.00 42 1018.1
20190418033529 64 355 0.0 0.0 0.00 0.00 0.00 42 1018.0
20190418033036 64 342 0.0 0.0 0.00 0.00 0.00 42 1018.0
20190418032540 65 341 0.0 0.0 0.00 0.00 0.00 41 1017.9
20190418032043 65 333 0.0 0.0 0.00 0.00 0.00 41 1017.9
20190418031527 65 329 0.0 0.0 0.00 0.00 0.00 41 1017.9
20190418031029 65 5 0.0 0.0 0.00 0.00 0.00 41 1017.8
20190418030544 65 340 0.0 0.0 0.00 0.00 0.00 40 1017.7
20190418030032 66 18 0.0 0.0 0.00 0.00 0.00 40 1017.6
20190418025539 66 19 0.0 0.0 0.00 0.00 0.00 40 1017.6
20190418025040 66 324 0.0 0.0 0.00 0.00 0.00 39 1017.4
20190418024524 66 300 0.0 0.0 0.00 0.00 0.00 39 1017.4
20190418024026 66 44 0.0 0.0 0.00 0.00 0.00 38 1017.4
20190418023528 66 297 0.0 0.0 0.00 0.00 0.00 38 1017.3
20190418023029 67 304 0.0 0.0 0.00 0.00 0.00 38 1017.3
20190418022529 67 304 0.0 0.0 0.00 0.00 0.00 38 1017.2
20190418022030 67 294 0.0 0.0 0.00 0.00 0.00 38 1017.1
20190418021534 67 344 0.0 0.0 0.00 0.00 0.00 37 1017.1
20190418021039 67 260 0.0 0.0 0.00 0.00 0.00 37 1016.9
20190418020536 67 294 0.0 0.0 0.00 0.00 0.00 37 1016.8
20190418020025 68 301 0.0 0.0 0.00 0.00 0.00 36 1016.8
20190418015525 68 336 0.0 0.0 0.00 0.00 0.00 36 1016.8
20190418015027 68 274 0.0 0.0 0.00 0.00 0.00 36 1016.8
20190418014534 69 252 0.0 0.0 0.00 0.00 0.00 36 1016.7
20190418014039 69 284 0.0 0.0 0.00 0.00 0.00 35 1016.8
20190418013539 70 289 0.0 0.0 0.00 0.00 0.00 35 1016.7
20190418013022 70 287 0.0 0.0 0.00 0.00 0.00 34 1016.7
20190418012526 71 284 0.0 0.0 0.00 0.00 0.00 34 1016.6
20190418012031 71 317 0.0 0.0 0.00 0.00 0.00 34 1016.6
20190418011534 71 324 0.0 0.0 0.00 0.00 0.00 34 1016.6
20190418011035 71 315 0.0 0.0 0.00 0.00 0.00 34 1016.6
20190418010550 71 284 0.0 0.0 0.00 0.00 0.00 33 1016.6
20190418010035 71 262 0.0 0.0 0.00 0.00 0.00 33 1016.6
20190418005537 71 311 1.0 0.0 0.00 0.00 0.00 33 1016.6
20190418005021 72 307 0.0 0.0 0.00 0.00 0.00 33 1016.5
20190418004525 72 329 0.0 0.0 0.00 0.00 0.00 32 1016.5
20190418004029 72 267 0.0 0.0 0.00 0.00 0.00 32 1016.3
20190418003533 72 313 0.0 0.0 0.00 0.00 0.00 33 1016.3
20190418003039 72 228 0.0 0.0 0.00 0.00 0.00 32 1016.3
20190418002540 72 284 0.0 0.0 0.00 0.00 0.00 32 1016.3
20190418002027 72 254 0.0 0.0 0.00 0.00 0.00 32 1016.3
20190418001534 72 312 0.0 0.0 0.00 0.00 0.00 32 1016.3
20190418001035 72 321 0.0 0.0 0.00 0.00 0.00 32 1016.3
20190418000550 72 334 0.0 0.0 0.00 0.00 0.00 32 1016.3
20190418000039 72 259 0.0 0.0 0.00 0.00 0.00 32 1016.2
20190417235529 72 294 1.0 0.0 0.00 0.00 0.00 31 1016.3
20190417235030 73 268 0.0 0.0 0.00 0.00 0.00 31 1016.2
20190417234531 73 284 0.0 0.0 0.00 0.00 0.00 31 1016.2
20190417234035 74 280 0.0 0.0 0.00 0.00 0.00 31 1016.2
20190417233539 74 290 0.0 0.0 0.00 0.00 0.00 31 1016.1
20190417233042 74 306 0.0 0.0 0.00 0.00 0.00 31 1016.2
20190417232543 74 283 0.0 0.0 0.00 0.00 0.00 31 1016.2
20190417232027 73 342 0.0 0.0 0.00 0.00 0.00 32 1016.1
20190417231534 72 307 0.0 0.0 0.00 0.00 0.00 32 1016.1
20190417231038 72 322 0.0 0.0 0.00 0.00 0.00 32 1016.2
20190417230550 73 313 0.0 0.0 0.00 0.00 0.00 31 1016.2
20190417230035 73 310 0.0 0.0 0.00 0.00 0.00 32 1016.2
20190417225523 73 322 0.0 0.0 0.00 0.00 0.00 32 1016.2
20190417225033 73 331 0.0 0.0 0.00 0.00 0.00 32 1016.3
20190417224534 73 321 0.0 0.0 0.00 0.00 0.00 33 1016.3
20190417224039 72 303 1.0 0.0 0.00 0.00 0.00 32 1016.3
20190417223539 73 326 1.0 0.0 0.00 0.00 0.00 32 1016.3
20190417223043 73 280 0.0 0.0 0.00 0.00 0.00 32 1016.3
20190417222524 73 266 1.0 0.0 0.00 0.00 0.00 32 1016.4
20190417222026 74 335 1.0 0.0 0.00 0.00 0.00 31 1016.4
20190417221526 73 261 1.0 0.0 0.00 0.00 0.00 31 1016.4
20190417221027 74 252 0.0 0.0 0.00 0.00 0.00 31 1016.4
20190417220542 74 244 0.0 0.0 0.00 0.00 0.00 31 1016.4
20190417220034 74 267 0.0 0.0 0.00 0.00 0.00 31 1016.5
20190417215538 74 323 0.0 0.0 0.00 0.00 0.00 32 1016.5
20190417215042 73 318 0.0 0.0 0.00 0.00 0.00 32 1016.5
20190417214543 74 300 0.0 0.0 0.00 0.00 0.00 32 1016.7
20190417214027 73 248 0.0 0.0 0.00 0.00 0.00 32 1016.7
20190417213528 73 248 0.0 0.0 0.00 0.00 0.00 32 1017.0
20190417213031 73 5 0.0 0.0 0.00 0.00 0.00 32 1017.0
20190417212535 73 296 1.0 0.0 0.00 0.00 0.00 31 1017.1
20190417212036 73 286 1.0 0.0 0.00 0.00 0.00 32 1017.0
20190417211537 72 274 0.0 0.0 0.00 0.00 0.00 33 1017.1
20190417211041 72 309 0.0 0.0 0.00 0.00 0.00 33 1017.2
20190417210538 72 290 0.0 0.0 0.00 0.00 0.00 32 1017.1
20190417210030 72 278 0.0 0.0 0.00 0.00 0.00 33 1017.1
20190417205530 72 317 0.0 0.0 0.00 0.00 0.00 33 1017.1
20190417205034 71 298 0.0 0.0 0.00 0.00 0.00 33 1017.1
20190417204538 71 333 1.0 0.0 0.00 0.00 0.00 34 1017.2
20190417204042 71 309 1.0 0.0 0.00 0.00 0.00 35 1017.2
20190417203543 70 286 0.0 0.0 0.00 0.00 0.00 34 1017.2
20190417203024 70 286 0.0 0.0 0.00 0.00 0.00 34 1017.3
20190417202527 71 297 0.0 0.0 0.00 0.00 0.00 35 1017.2
20190417202103 70 242 0.0 0.0 0.00 0.00 0.00 35 1017.0
20190417201533 70 299 0.0 0.0 0.00 0.00 0.00 36 1017.1
20190417201034 70 316 0.0 0.0 0.00 0.00 0.00 36 1017.1
20190417200550 69 321 0.0 0.0 0.00 0.00 0.00 37 1017.0
20190417200041 69 249 0.0 0.0 0.00 0.00 0.00 37 1017.1
20190417195542 70 279 0.0 0.0 0.00 0.00 0.00 37 1017.2
20190417195043 70 315 0.0 0.0 0.00 0.00 0.00 37 1017.2
20190417194524 70 265 0.0 0.0 0.00 0.00 0.00 37 1017.2
20190417194025 69 228 0.0 0.0 0.00 0.00 0.00 38 1017.3
20190417193529 69 240 0.0 0.0 0.00 0.00 0.00 38 1017.3
20190417193029 69 277 0.0 0.0 0.00 0.00 0.00 38 1017.2
20190417192530 69 301 0.0 0.0 0.00 0.00 0.00 38 1017.2
20190417192031 69 311 0.0 0.0 0.00 0.00 0.00 39 1017.3
20190417191533 68 261 0.0 0.0 0.00 0.00 0.00 40 1017.2
20190417191034 68 292 0.0 0.0 0.00 0.00 0.00 40 1017.2
20190417190549 68 35 0.0 0.0 0.00 0.00 0.00 40 1017.2
20190417190039 68 318 0.0 0.0 0.00 0.00 0.00 40 1017.2
20190417185540 68 13 0.0 0.0 0.00 0.00 0.00 41 1017.1
20190417185041 68 334 0.0 0.0 0.00 0.00 0.00 41 1017.2
20190417184542 67 275 0.0 0.0 0.00 0.00 0.00 42 1017.2
20190417184043 67 275 0.0 0.0 0.00 0.00 0.00 42 1017.2
20190417183524 67 342 0.0 0.0 0.00 0.00 0.00 42 1017.2
20190417183028 67 286 0.0 0.0 0.00 0.00 0.00 40 1017.2
20190417182535 66 299 0.0 0.0 0.00 0.00 0.00 43 1017.3
20190417182036 66 326 0.0 0.0 0.00 0.00 0.00 44 1017.3
20190417181540 66 318 0.0 0.0 0.00 0.00 0.00 44 1017.4
20190417181025 66 279 0.0 0.0 0.00 0.00 0.00 44 1017.4
20190417180557 65 321 0.0 0.0 0.00 0.00 0.00 44 1017.4
20190417180042 65 346 0.0 0.0 0.00 0.00 0.00 46 1017.3
20190417175543 65 251 0.0 0.0 0.00 0.00 0.00 46 1017.4
20190417175024 65 222 0.0 0.0 0.00 0.00 0.00 45 1017.5
20190417174528 65 5 0.0 0.0 0.00 0.00 0.00 45 1017.5
20190417174028 65 336 0.0 0.0 0.00 0.00 0.00 45 1017.6
20190417173534 66 240 0.0 0.0 0.00 0.00 0.00 44 1017.5
20190417173038 66 17 0.0 0.0 0.00 0.00 0.00 44 1017.4
20190417172542 65 300 0.0 0.0 0.00 0.00 0.00 45 1017.5
20190417172023 65 261 0.0 0.0 0.00 0.00 0.00 46 1017.5
20190417171530 64 299 0.0 0.0 0.00 0.00 0.00 47 1017.4
20190417171035 64 256 0.0 0.0 0.00 0.00 0.00 47 1017.4
20190417170546 63 340 0.0 0.0 0.00 0.00 0.00 47 1017.2
20190417170035 64 294 0.0 0.0 0.00 0.00 0.00 50 1017.3
20190417165535 63 265 0.0 0.0 0.00 0.00 0.00 51 1017.4
20190417165036 63 250 0.0 0.0 0.00 0.00 0.00 51 1017.5
20190417164541 63 312 0.0 0.0 0.00 0.00 0.00 52 1017.5
20190417164041 63 312 0.0 0.0 0.00 0.00 0.00 52 1017.4
20190417163526 62 325 0.0 0.0 0.00 0.00 0.00 52 1017.4
20190417163033 62 289 0.0 0.0 0.00 0.00 0.00 56 1017.3
20190417162529 62 290 0.0 0.0 0.00 0.00 0.00 56 1017.4
20190417162030 61 263 0.0 0.0 0.00 0.00 0.00 57 1017.3
20190417161535 61 268 0.0 0.0 0.00 0.00 0.00 58 1017.3
20190417161043 61 317 0.0 0.0 0.00 0.00 0.00 59 1017.2
20190417160535 60 300 0.0 0.0 0.00 0.00 0.00 59 1017.2
20190417160026 60 243 0.0 0.0 0.00 0.00 0.00 60 1017.2
20190417155529 60 215 0.0 0.0 0.00 0.00 0.00 62 1017.1
20190417155034 60 207 0.0 0.0 0.00 0.00 0.00 62 1017.2
20190417154535 60 266 0.0 0.0 0.00 0.00 0.00 63 1017.2
20190417154042 59 329 0.0 0.0 0.00 0.00 0.00 63 1017.0
20190417153525 59 316 0.0 0.0 0.00 0.00 0.00 66 1017.1
20190417153029 59 205 0.0 0.0 0.00 0.00 0.00 66 1017.0
20190417152534 58 227 0.0 0.0 0.00 0.00 0.00 67 1016.9
20190417152034 58 267 0.0 0.0 0.00 0.00 0.00 68 1017.0
20190417151539 58 284 0.0 0.0 0.00 0.00 0.00 69 1017.0
20190417151040 58 203 0.0 0.0 0.00 0.00 0.00 71 1016.9
20190417150552 57 258 0.0 0.0 0.00 0.00 0.00 73 1016.9
20190417150021 56 248 0.0 0.0 0.00 0.00 0.00 75 1016.8
20190417145527 56 238 0.0 0.0 0.00 0.00 0.00 75 1016.7
20190417145035 56 280 0.0 0.0 0.00 0.00 0.00 76 1016.7
20190417144535 55 272 0.0 0.0 0.00 0.00 0.00 79 1016.5
20190417144036 55 271 0.0 0.0 0.00 0.00 0.00 81 1016.5
20190417143523 55 239 0.0 0.0 0.00 0.00 0.00 83 1016.4
20190417143024 54 217 0.0 0.0 0.00 0.00 0.00 83 1016.3
20190417142524 54 258 0.0 0.0 0.00 0.00 0.00 85 1016.2
20190417142035 54 258 0.0 0.0 0.00 0.00 0.00 85 1016.0
20190417141537 53 258 0.0 0.0 0.00 0.00 0.00 85 1016.0
20190417141041 53 258 0.0 0.0 0.00 0.00 0.00 86 1015.9
20190417140540 53 258 0.0 0.0 0.00 0.00 0.00 86 1015.8
20190417140029 53 258 0.0 0.0 0.00 0.00 0.00 86 1015.7
20190417135530 53 258 0.0 0.0 0.00 0.00 0.00 86 1015.7
20190417135034 53 258 0.0 0.0 0.00 0.00 0.00 87 1015.6
20190417134539 53 258 0.0 0.0 0.00 0.00 0.00 87 1015.5
20190417134040 53 258 0.0 0.0 0.00 0.00 0.00 87 1015.4
20190417133523 53 258 0.0 0.0 0.00 0.00 0.00 87 1015.4
20190417133024 53 258 0.0 0.0 0.00 0.00 0.00 87 1015.2
20190417132530 53 249 0.0 0.0 0.00 0.00 0.00 87 1015.1
20190417132034 53 268 0.0 0.0 0.00 0.00 0.00 87 1014.9
20190417131535 53 215 0.0 0.0 0.00 0.00 0.00 87 1014.8
20190417131038 53 254 0.0 0.0 0.00 0.00 0.00 87 1014.7
20190417130550 53 235 0.0 0.0 0.00 0.00 0.00 87 1014.7
20190417130022 53 256 0.0 0.0 0.00 0.00 0.00 87 1014.5
20190417125527 52 284 0.0 0.0 0.00 0.00 0.00 87 1014.4
20190417125030 53 281 0.0 0.0 0.00 0.00 0.00 87 1014.3
20190417124534 53 279 0.0 0.0 0.00 0.00 0.00 87 1014.3
20190417124039 53 283 0.0 0.0 0.00 0.00 0.00 87 1014.2
20190417123525 53 276 0.0 0.0 0.00 0.00 0.00 87 1014.1
20190417123029 53 277 0.0 0.0 0.00 0.00 0.00 87 1014.0
20190417122530 53 277 0.0 0.0 0.00 0.00 0.00 87 1013.9
20190417122031 53 277 0.0 0.0 0.00 0.00 0.00 87 1013.8
20190417121536 53 277 0.0 0.0 0.00 0.00 0.00 87 1013.8
20190417121036 53 277 0.0 0.0 0.00 0.00 0.00 87 1013.8
20190417120551 53 277 0.0 0.0 0.00 0.00 0.00 86 1013.9
20190417120037 53 271 0.0 0.0 0.00 0.00 0.00 86 1013.8
20190417115541 53 273 0.0 0.0 0.00 0.00 0.00 86 1013.7
20190417115023 53 277 0.0 0.0 0.00 0.00 0.00 86 1013.7
20190417114529 53 277 0.0 0.0 0.00 0.00 0.00 85 1013.7
20190417114030 53 277 0.0 0.0 0.00 0.00 0.00 85 1013.6
20190417113535 53 277 0.0 0.0 0.00 0.00 0.00 85 1013.6
20190417113042 53 277 0.0 0.0 0.00 0.00 0.00 85 1013.6
20190417112529 53 277 0.0 0.0 0.00 0.00 0.00 84 1013.6
20190417112030 53 277 0.0 0.0 0.00 0.00 0.00 84 1013.7
20190417111531 53 277 0.0 0.0 0.00 0.00 0.00 84 1013.5
20190417111035 53 277 0.0 0.0 0.00 0.00 0.00 83 1013.5
20190417110547 53 277 0.0 0.0 0.00 0.00 0.00 83 1013.5
20190417110039 53 278 0.0 0.0 0.00 0.00 0.00 83 1013.5
20190417105539 53 282 0.0 0.0 0.00 0.00 0.00 83 1013.4
20190417105023 53 284 0.0 0.0 0.00 0.00 0.00 83 1013.4
20190417104524 53 275 0.0 0.0 0.00 0.00 0.00 83 1013.4
20190417104034 53 285 0.0 0.0 0.00 0.00 0.00 83 1013.4
20190417103539 53 292 0.0 0.0 0.00 0.00 0.00 83 1013.4
20190417103020 53 292 0.0 0.0 0.00 0.00 0.00 84 1013.2
20190417102527 53 323 0.0 0.0 0.00 0.00 0.00 84 1013.3
20190417102028 53 295 0.0 0.0 0.00 0.00 0.00 85 1013.2